Regional Weather Roundup
Issued by NWS Burlington, VT

Home | Current Version | Previous Version | Text Only | Print | Product List | Glossary On
Versions: 1 2 3 4 5 6 7 8 9 10 11 12 13 14 15 16 17 18 19 20 21 22 23 24 25 26 27 28 29 30 31 32 33 34 35 36 37 38 39 40 41 42 43 44 45 46 47 48 49 50
000
ASUS41 KBTV 301030
RWRBTV
VERMONT REGIONAL WEATHER ROUNDUP
NATIONAL WEATHER SERVICE BURLINGTON VT
600 AM EDT MON MAR 30 2015

NOTE: "FAIR" INDICATES FEW OR NO CLOUDS BELOW 12,000 FEET WITH NO
SIGNIFICANT WEATHER AND/OR OBSTRUCTIONS TO VISIBILITY.

* THESE REPORTS ARE NOT UNDER NWS QUALITY CONTROL AND/OR DO NOT
  REPORT WEATHER SUCH AS PRECIPITATION AND FOG.

VTZ001>019-301100-
_____VERMONT_____


CITY           SKY/WX    TMP DP  RH WIND       PRES   REMARKS
BURLINGTON     CLOUDY    36   9  32 S16G28    29.73F
MONTPELIER     CLOUDY    29  11  47 S8        29.78F
MORRISVILLE    CLOUDY    35  11  36 VRB5      29.74F
ST. JOHNSBURY*   N/A     32   9  38 MISG      29.76F
LYNDONVILLE*   CLOUDY    30   7  37 SE7       29.75F
MIDDLEBURY*    FLURRIES  33  21  60 S17G26    29.79R
RUTLAND*       CLOUDY    34  21  60 SW9G17    29.80S
SPRINGFIELD    CLOUDY    28  16  60 CALM      29.84F
HIGHGATE*      CLOUDY    36  10  34 S12G22    29.69F
NEWPORT*       PTSUNNY   30  10  43 S7        29.72F
BENNINGTON     LGT SNOW  31  24  75 S9        29.82F
MT. MANSFIELD*   N/A     21 N/A N/A CALM        N/A

_____LAKE CHAMPLAIN_____


CITY           SKY/WX    TMP DP  RH WIND       PRES   REMARKS
BURTON ISLAND*   N/A     32  21  64 S18         N/A
COLCHESTER RF*   N/A     32  21  64 S29         N/A
DIAMOND ISL*     N/A     34  16  47 S17         N/A

$$

NYZ007-026>031-035-052-083-301100-
_____NORTHERN NEW YORK_____


CITY           SKY/WX    TMP DP  RH WIND       PRES   REMARKS
PLATTSBURGH    CLOUDY    32  15  49 SE5       29.71F
SARANAC LAKE   CLOUDY    29  22  75 SW13      29.61F WCI  19
MASSENA        FLURRIES  36  27  69 S14G24    29.62F
OGDENSBURG*    LGT SNOW  36  30  80 S10G21    29.59F
POTSDAM*       FLURRIES  36  28  75 S12G22    29.60F
WATERTOWN      FLURRIES  37  28  70 S14G28    29.61F
FT DRUM        LGT RAIN  34  28  80 S20       29.59F
ALBANY         FLURRIES  36  14  40 S16G26    29.83F
GLENS FALLS    LGT SNOW  30  25  81 SW8       29.82F

$$
NHZ002-005-011-301100-
_____NEW HAMPSHIRE_____


CITY           SKY/WX    TMP DP  RH WIND       PRES   REMARKS
LEBANON        CLOUDY    33  11  39 S9        29.81F
KEENE          CLOUDY    30  16  55 S12       29.86F
MT WASHINGTON  CLOUDY    16  -4  41 W55         N/A  WCI -10
PLYMOUTH       PTSUNNY   25  22  89 CALM      29.84F
WHITEFIELD     CLOUDY    23  17  78 CALM      29.77F

$$

_____REGIONAL QUEBEC LOCATIONS_____


CITY           SKY/WX    TMP DP  RH WIND       PRES   REMARKS
MONTREAL       CLOUDY    34  19  55 S14       29.64F
QUEBEC CITY    PTSUNNY   27  16  63 NE5       29.70F
SHERBROOKE     PTSUNNY   32   9  37 VRB2      29.71F

_____REGIONAL ONTARIO LOCATIONS_____


CITY           SKY/WX    TMP DP  RH WIND       PRES   REMARKS
OTTAWA         LGT SNOW  34  28  80 S16G25    29.55F

______KEY______
VSB  - VISIBILITY IN MILES
WCI  - WIND CHILL INDEX
HX   - HEAT INDEX
$$



USA.gov is the U.S. government's official web portal to all federal, state and local government web resources and services.